Wind_Speed
82 81 80 80 77 72 61 64 69 75 83 84 90 87 85 74 72 67 59 55 53 53 51 49 47 45 43 40 35 36 36 33 32 30 30 31 32 30 28 28 26 26 27 27 29 29 27 26 24
86 83 79 78 77 72 62 68 70 78 84 87 93 88 90 82 76 70 63 61 58 55 53 51 50 48 45 43 40 37 36 35 33 33 33 32 32 31 31 30 29 28 28 28 28 28 28 26 25
85 84 81 79 77 72 66 70 77 84 88 90 89 91 88 83 82 79 70 64 62 57 55 53 51 51 46 43 42 41 40 37 36 36 36 34 31 29 28 28 29 30 29 28 27 27 26 25 25
82 85 85 78 77 76 71 78 89 88 88 90 92 96 91 84 82 78 74 69 67 62 59 56 53 53 49 46 43 42 41 39 36 34 35 34 33 31 29 29 29 29 28 28 27 26 25 25 24
82 85 85 83 81 81 79 81 95 91 88 90 96 91 91 85 87 79 74 72 70 65 62 58 57 54 52 48 46 43 42 40 37 36 36 36 34 34 34 32 31 29 28 28 27 26 26 26 25
78 83 86 85 84 86 85 83 89 87 85 91 98 96 96 92 89 78 67 72 72 68 64 61 58 56 55 50 49 48 45 43 43 41 41 38 36 34 33 33 31 30 30 29 28 26 27 27 26
79 80 80 82 82 85 80 81 85 85 84 92 93 103 101 93 90 81 70 67 62 65 67 64 61 58 58 54 51 51 48 47 48 46 45 43 39 36 34 33 33 35 34 32 30 29 27 27 27
76 78 76 78 72 72 64 73 83 85 85 96 99 104 102 93 95 84 77 76 58 63 64 65 61 59 60 57 55 52 52 51 47 46 46 46 42 39 39 38 39 36 38 35 32 31 30 29 26
76 75 74 71 71 63 63 69 78 82 86 96 99 106 106 102 98 88 81 78 64 59 58 60 63 58 59 58 58 57 55 54 55 53 50 47 45 43 42 42 41 38 36 36 33 32 31 30 28
75 74 72 74 73 72 69 67 76 84 88 96 99 106 108 107 96 92 81 78 76 59 64 61 58 58 53 54 56 56 56 58 57 56 53 52 49 46 45 43 43 40 36 31 32 33 31 31 31
73 70 72 71 72 72 71 70 75 83 88 95 101 106 107 109 98 93 89 86 84 76 55 51 51 55 47 46 47 52 54 53 55 52 51 50 48 48 47 44 42 41 38 36 36 36 35 34 34
72 67 66 74 73 72 69 72 76 84 87 97 106 107 87 111 97 97 90 84 88 81 75 68 58 64 62 58 49 53 52 51 52 51 50 50 50 47 44 43 40 41 42 40 38 38 38 38 38
70 68 67 73 75 71 73 70 76 81 87 97 111 112 115 111 101 96 96 90 85 77 74 74 65 69 62 55 53 50 48 47 52 53 52 49 46 47 47 46 44 42 46 44 43 42 42 43 42
70 69 68 68 72 72 68 69 78 84 87 95 107 110 102 109 103 100 96 91 87 80 71 67 63 55 46 44 49 47 48 49 50 55 56 57 52 49 49 48 47 48 48 48 47 48 47 46 48
66 62 64 62 66 65 67 72 78 86 90 91 102 107 95 103 99 100 92 91 85 83 72 67 76 73 55 57 61 50 52 57 58 54 50 55 55 52 51 51 55 51 49 51 52 52 53 53 54
55 53 53 54 58 60 64 70 80 85 89 93 103 102 94 87 104 99 94 94 79 76 72 71 66 71 71 66 62 58 52 49 51 45 43 47 50 51 54 52 51 53 53 54 55 57 58 61 60
42 44 44 49 53 60 65 78 85 80 89 96 109 104 105 91 89 87 90 81 74 75 79 75 74 68 67 69 68 65 62 66 66 66 60 50 55 50 50 53 54 53 57 60 59 61 61 62 62
37 36 39 45 48 54 63 76 77 83 88 103 116 107 103 90 91 92 92 83 97 90 82 83 83 75 69 73 76 76 83 79 75 78 76 66 59 54 58 58 60 62 60 57 62 65 65 64 64
31 37 38 45 51 59 70 75 80 83 91 101 116 114 104 96 97 96 91 99 90 95 95 77 72 84 80 75 78 78 86 83 68 65 84 80 76 77 71 69 66 65 65 67 64 65 68 70 69
32 35 40 50 55 63 72 77 84 86 92 101 119 113 111 97 99 99 99 100 109 95 90 95 82 84 80 66 66 74 78 91 92 79 70 68 73 75 79 66 69 73 70 72 71 75 76 75 75
30 33 40 47 51 59 69 75 78 86 89 98 120 118 114 110 100 100 100 100 103 109 112 103 89 80 87 79 66 65 69 78 86 85 74 79 67 72 70 73 77 80 84 85 81 81 79 82 84
32 37 40 46 52 59 66 74 77 81 89 99 117 122 123 121 117 106 107 107 105 99 90 99 100 94 84 80 66 64 69 63 64 66 71 77 80 79 79 81 84 84 85 85 86 89 88 86 85
31 35 39 44 51 61 68 70 71 77 83 99 115 124 122 111 116 116 120 110 109 102 102 91 92 96 95 92 84 76 73 77 70 71 74 79 83 81 86 86 86 92 97 90 92 94 91 94 95
31 31 34 44 51 59 63 66 68 79 85 94 108 124 123 123 117 119 113 108 107 109 112 107 101 94 98 101 96 87 89 83 82 84 88 87 85 84 83 86 87 86 73 89 92 91 96 99 98
29 32 36 43 50 58 60 65 70 79 86 96 105 123 123 125 122 117 117 112 119 115 115 105 106 107 103 102 106 106 102 102 100 100 102 97 87 81 88 90 91 93 95 99 99 102 99 98 94
28 29 34 41 49 58 63 66 69 72 83 87 96 117 127 121 125 120 114 112 112 107 97 107 107 104 102 115 113 98 97 98 98 96 98 98 96 91 92 93 99 102 100 103 107 107 102 100 101
25 29 34 38 41 51 58 61 64 66 79 84 92 105 120 127 120 119 125 122 117 110 109 108 107 101 100 105 112 106 103 104 109 110 108 104 101 105 107 104 96 104 111 109 109 110 106 106 111
20 23 25 28 33 43 50 56 58 63 71 80 84 86 107 118 127 126 119 124 129 122 116 113 115 110 99 104 106 104 104 105 110 109 108 108 102 103 114 110 109 110 108 106 112 117 115 113 119
11 13 16 18 22 25 34 48 54 58 64 71 77 82 89 109 124 127 125 125 126 124 125 127 126 128 121 114 108 106 107 104 104 100 97 96 106 110 111 109 111 118 117 113 115 121 123 123 118
10 10 13 14 15 17 22 27 43 53 56 66 73 78 84 88 99 117 125 124 125 122 122 124 126 133 136 135 131 131 132 129 129 125 123 120 118 113 116 120 123 122 121 122 125 128 130 131 134
Wind_Direction
258 259 256 252 252 250 247 238 232 235 238 239 240 237 238 237 237 235 234 236 240 238 238 240 245 245 247 251 257 261 262 264 265 267 273 279 276 274 274 277 281 284 291 294 300 305 304 302 304
254 256 256 252 254 255 250 247 240 238 238 237 236 235 235 236 234 234 234 233 237 237 237 238 241 243 244 247 252 258 257 262 262 266 271 278 278 275 277 279 282 283 286 289 297 304 303 301 303
253 253 255 257 256 255 251 246 246 243 240 238 238 237 234 234 234 233 233 232 234 236 236 239 241 244 245 247 250 258 257 258 262 265 270 276 277 277 281 283 285 283 283 286 295 302 301 300 303
251 252 252 256 259 257 252 247 244 241 238 234 233 233 230 230 229 232 232 231 232 234 236 236 240 245 247 250 250 255 262 258 260 261 266 272 272 276 280 286 289 287 283 284 293 301 302 300 297
246 250 250 251 252 252 248 246 242 241 235 232 229 231 232 227 228 230 232 232 230 232 237 235 238 242 244 249 249 252 256 257 253 263 266 269 272 273 280 284 288 291 285 285 292 296 302 304 299
247 245 246 247 247 249 247 243 239 238 232 226 225 227 228 223 225 226 225 229 231 233 233 235 237 241 244 247 251 253 255 255 258 263 266 268 271 272 276 280 285 290 286 285 290 295 300 302 300
248 245 245 248 249 250 245 237 235 233 226 224 222 222 226 222 221 223 226 227 232 234 232 236 237 240 244 246 249 253 254 256 260 263 265 267 267 270 270 277 284 288 288 284 288 292 297 299 297
249 246 246 250 254 252 244 231 229 228 219 220 218 215 225 223 220 219 221 225 231 231 231 233 235 239 244 247 248 251 254 255 258 261 266 263 265 268 268 276 281 286 286 283 284 289 291 294 292
247 249 252 256 255 248 246 236 230 225 216 215 216 213 219 222 220 216 215 222 226 226 230 233 236 236 244 248 252 252 253 256 259 260 262 263 267 267 270 275 280 282 283 281 282 286 288 290 292
250 251 258 256 253 250 240 233 227 221 213 212 212 213 216 223 219 214 213 216 220 223 225 230 237 236 244 245 248 252 255 257 257 262 261 263 264 267 271 274 277 279 279 276 279 280 281 285 292
255 257 261 259 253 247 242 230 224 218 211 209 209 212 213 220 220 214 213 216 222 226 225 229 231 233 237 241 242 247 249 254 256 261 262 261 263 267 270 273 273 275 275 274 275 276 277 281 284
266 263 260 255 253 248 243 232 221 214 208 206 209 207 203 219 220 215 213 212 221 226 228 231 234 241 243 244 244 246 252 253 255 260 261 262 265 267 267 269 273 272 275 277 275 276 275 280 285
271 267 257 250 249 245 239 231 218 210 207 204 206 205 204 215 220 217 214 214 221 224 228 235 233 244 242 236 244 256 258 259 254 257 257 261 265 268 270 273 272 273 274 275 276 280 279 282 283
272 266 256 249 244 239 233 222 211 208 204 203 203 207 202 215 218 218 215 216 219 223 229 231 228 221 227 248 242 238 241 246 248 252 256 258 260 263 267 269 272 276 276 274 272 277 279 280 283
270 262 255 249 240 230 223 212 206 204 202 198 200 202 202 214 216 219 212 219 219 224 224 227 228 232 224 230 235 238 250 248 252 255 258 257 257 261 262 264 271 273 275 277 277 278 279 281 284
262 255 251 242 234 224 215 206 202 202 200 197 196 198 197 214 216 218 217 220 224 222 216 221 225 230 225 227 235 253 249 246 255 256 261 261 262 260 260 264 270 272 272 273 274 278 279 282 283
259 250 240 234 226 216 205 202 204 199 197 195 194 195 198 205 212 217 219 211 207 212 217 214 218 224 233 237 245 251 242 245 252 255 261 270 262 258 261 265 270 278 275 270 273 276 279 279 281
244 233 226 222 218 211 202 203 202 196 194 194 192 193 194 203 206 214 212 207 203 210 214 217 225 225 233 239 244 249 248 251 259 262 260 260 262 257 267 273 274 278 278 274 274 276 277 279 281
236 224 205 207 209 201 198 201 200 198 194 193 191 191 192 198 204 207 208 203 206 209 215 214 227 227 240 242 244 248 249 253 259 264 267 260 256 257 267 271 272 270 271 272 274 276 274 274 279
222 217 203 199 202 200 198 199 200 198 194 192 192 191 192 194 201 203 205 206 208 206 209 219 220 232 236 238 243 247 251 251 255 258 264 266 259 258 261 264 269 268 271 275 276 276 275 276 277
212 201 201 199 201 199 199 200 202 200 193 193 194 192 196 197 199 200 206 208 212 213 215 219 219 224 231 230 233 238 248 257 256 256 254 255 259 259 261 266 269 268 271 275 274 275 275 275 276
202 197 198 198 196 197 200 201 201 201 194 194 195 195 198 201 204 209 205 209 212 219 216 220 221 222 222 224 226 231 239 241 245 250 256 259 260 260 262 265 267 268 270 270 272 271 273 274 277
200 196 198 196 195 198 201 203 200 200 194 196 197 197 199 201 205 205 208 214 218 218 212 212 215 218 222 225 224 231 235 240 238 240 249 256 258 263 267 269 271 272 271 273 275 274 276 278 279
194 193 197 196 194 200 202 202 197 200 198 199 198 197 202 201 204 209 213 216 215 215 215 217 218 224 223 229 229 229 232 233 238 243 249 254 258 262 261 263 264 267 273 269 273 276 278 281 282
192 193 197 198 195 197 202 202 203 201 203 201 200 200 202 206 206 211 213 214 213 220 224 226 225 222 226 229 233 237 240 237 241 246 250 253 256 256 260 260 263 266 267 273 274 277 280 283 285
189 196 200 201 200 198 203 205 205 202 207 209 206 204 204 206 207 210 214 216 216 219 222 223 231 232 231 231 234 236 243 245 245 247 250 254 253 257 260 260 262 263 266 272 272 274 276 276 279
199 202 203 205 207 204 207 210 209 203 207 211 212 210 207 208 209 214 214 216 215 220 226 222 225 230 230 234 234 244 242 240 241 247 250 257 257 257 260 259 257 260 267 269 270 267 271 273 276
213 212 217 217 213 211 212 214 215 209 209 214 219 217 213 212 212 214 216 218 219 221 222 222 225 227 228 234 237 243 247 247 247 252 255 254 259 255 256 259 266 264 268 267 269 266 273 273 277
229 231 240 238 236 237 225 216 219 218 214 218 219 224 221 216 216 216 219 221 223 228 226 226 228 229 230 231 232 234 238 238 244 245 249 250 254 255 257 260 262 261 263 262 266 265 270 274 275
236 252 253 250 245 237 241 237 227 226 226 221 222 223 226 226 223 223 223 226 227 230 232 232 233 232 232 236 239 240 242 242 244 244 246 247 249 252 257 261 263 262 263 265 265 264 267 270 273
Height
10725 10728 10730 10733 10735 10741 10767 10784 10795 10794 10796 10809 10811 10825 10832 10843 10851 10859 10865 10870 10873 10877 10881 10885 10888 10892 10895 10898 10901 10904 10906 10907 10909 10910 10911 10912 10912 10913 10914 10914 10914 10914 10914 10913 10912 10910 10908 10907 10905
10705 10710 10715 10718 10719 10730 10758 10769 10775 10777 10782 10785 10792 10806 10814 10831 10843 10848 10856 10861 10865 10870 10875 10877 10881 10885 10888 10892 10895 10898 10900 10903 10904 10906 10907 10908 10908 10908 10909 10910 10910 10910 10910 10910 10908 10906 10904 10903 10901
10691 10693 10696 10701 10703 10720 10746 10753 10754 10755 10762 10774 10787 10795 10808 10821 10829 10836 10843 10851 10857 10863 10868 10871 10875 10879 10882 10886 10889 10891 10894 10897 10899 10900 10902 10903 10903 10904 10905 10905 10906 10906 10906 10905 10904 10903 10901 10899 10897
10676 10677 10680 10685 10692 10709 10724 10726 10722 10733 10744 10756 10765 10765 10791 10807 10818 10826 10833 10840 10848 10854 10860 10864 10869 10873 10876 10880 10883 10885 10887 10890 10893 10895 10896 10898 10899 10900 10900 10901 10902 10901 10901 10901 10900 10899 10897 10895 10893
10659 10661 10664 10671 10681 10692 10702 10705 10701 10717 10730 10741 10745 10764 10778 10794 10806 10815 10824 10831 10838 10845 10852 10857 10862 10865 10869 10872 10875 10878 10881 10884 10886 10889 10890 10892 10894 10895 10895 10896 10896 10897 10896 10896 10895 10895 10893 10891 10889
10645 10646 10653 10659 10668 10671 10677 10685 10684 10698 10708 10717 10730 10747 10756 10777 10791 10803 10815 10823 10829 10837 10843 10849 10854 10858 10863 10866 10869 10872 10874 10878 10880 10882 10884 10887 10889 10890 10890 10891 10891 10892 10892 10892 10891 10890 10889 10887 10885
10625 10633 10641 10645 10650 10647 10658 10663 10665 10672 10690 10703 10730 10730 10735 10763 10780 10795 10809 10815 10821 10827 10835 10841 10846 10851 10855 10859 10862 10865 10868 10871 10874 10876 10878 10880 10882 10884 10885 10885 10886 10887 10887 10887 10886 10886 10885 10883 10881
10608 10614 10623 10624 10625 10628 10635 10641 10639 10647 10670 10685 10703 10719 10734 10755 10769 10781 10796 10805 10811 10818 10824 10831 10838 10844 10849 10853 10856 10859 10861 10864 10866 10869 10871 10873 10875 10878 10879 10879 10881 10881 10881 10881 10881 10881 10879 10878 10878
10592 10597 10603 10602 10602 10604 10610 10617 10623 10632 10650 10668 10689 10710 10720 10728 10749 10769 10784 10793 10801 10807 10815 10823 10828 10834 10839 10844 10848 10850 10854 10856 10859 10861 10864 10866 10869 10871 10872 10873 10874 10875 10875 10875 10875 10874 10874 10873 10872
10574 10579 10579 10573 10579 10581 10584 10594 10599 10610 10630 10654 10679 10694 10702 10711 10740 10762 10776 10785 10789 10798 10806 10811 10817 10824 10829 10832 10836 10841 10844 10847 10851 10853 10856 10859 10861 10864 10865 10867 10868 10868 10869 10868 10868 10867 10867 10867 10866
10554 10563 10551 10556 10555 10557 10564 10574 10578 10594 10616 10644 10670 10682 10693 10704 10728 10750 10766 10776 10783 10791 10796 10802 10810 10814 10818 10822 10826 10830 10835 10839 10842 10845 10848 10851 10854 10856 10858 10859 10860 10861 10861 10861 10861 10860 10860 10859 10859
10528 10533 10533 10527 10527 10535 10547 10552 10562 10578 10609 10628 10647 10664 10682 10688 10716 10735 10755 10765 10768 10780 10787 10796 10803 10805 10810 10815 10816 10820 10826 10830 10833 10837 10840 10843 10846 10848 10850 10851 10852 10853 10853 10854 10853 10853 10852 10852 10852
10506 10502 10505 10500 10503 10515 10519 10535 10549 10570 10593 10615 10627 10649 10672 10684 10700 10725 10743 10751 10760 10770 10776 10788 10794 10794 10799 10804 10807 10810 10815 10820 10824 10827 10831 10834 10837 10840 10841 10842 10844 10845 10845 10845 10845 10845 10845 10844 10844
10473 10472 10472 10477 10481 10490 10504 10517 10532 10553 10578 10602 10624 10642 10671 10678 10690 10711 10735 10743 10755 10764 10773 10774 10786 10785 10791 10794 10797 10801 10807 10810 10813 10817 10821 10825 10828 10831 10833 10834 10835 10836 10837 10837 10837 10837 10837 10836 10835
10446 10448 10446 10456 10461 10474 10488 10500 10523 10537 10563 10594 10617 10637 10667 10674 10688 10702 10725 10734 10749 10758 10764 10766 10772 10780 10784 10783 10787 10790 10796 10800 10803 10808 10811 10815 10818 10821 10823 10824 10825 10826 10828 10828 10828 10827 10827 10826 10825
10425 10428 10435 10441 10450 10464 10475 10500 10512 10528 10552 10585 10607 10631 10659 10665 10684 10695 10715 10728 10741 10750 10754 10760 10764 10766 10772 10773 10779 10783 10789 10789 10793 10799 10803 10806 10810 10812 10814 10815 10816 10816 10818 10818 10818 10817 10816 10816 10815
10413 10416 10422 10428 10440 10450 10470 10480 10496 10517 10543 10572 10595 10617 10641 10657 10679 10692 10709 10721 10736 10737 10743 10750 10754 10756 10761 10767 10772 10775 10775 10779 10784 10786 10792 10800 10803 10803 10803 10804 10805 10805 10807 10807 10806 10806 10805 10804 10803
10400 10407 10413 10422 10434 10445 10461 10470 10491 10510 10537 10559 10579 10604 10630 10643 10658 10675 10697 10712 10715 10724 10734 10742 10748 10749 10753 10762 10766 10764 10765 10770 10771 10772 10785 10791 10796 10794 10793 10793 10795 10794 10794 10794 10794 10793 10793 10792 10791
10392 10397 10406 10415 10426 10437 10451 10465 10483 10503 10525 10548 10569 10589 10610 10626 10641 10656 10675 10691 10708 10720 10729 10731 10733 10740 10744 10750 10753 10758 10755 10760 10761 10763 10765 10777 10781 10783 10780 10781 10783 10781 10781 10780 10778 10777 10776 10777 10776
10386 10393 10402 10408 10418 10431 10446 10459 10472 10492 10516 10539 10560 10581 10598 10611 10624 10637 10654 10672 10683 10695 10705 10716 10723 10727 10735 10736 10740 10745 10745 10747 10753 10761 10760 10758 10762 10768 10769 10770 10768 10765 10764 10765 10764 10763 10761 10760 10760
10385 10394 10401 10407 10419 10430 10443 10456 10471 10488 10511 10534 10553 10570 10588 10598 10608 10621 10634 10647 10653 10671 10683 10692 10711 10714 10718 10727 10735 10737 10737 10736 10742 10743 10749 10750 10750 10754 10756 10756 10754 10750 10746 10747 10746 10744 10745 10743 10743
10383 10389 10397 10405 10416 10427 10439 10450 10466 10484 10502 10527 10547 10560 10573 10587 10601 10612 10623 10631 10642 10655 10669 10679 10693 10700 10711 10717 10720 10723 10725 10724 10726 10727 10733 10732 10734 10738 10741 10739 10737 10735 10733 10731 10728 10727 10728 10728 10729
10380 10388 10396 10405 10415 10424 10432 10446 10464 10483 10504 10519 10533 10550 10565 10578 10589 10601 10607 10619 10628 10644 10657 10670 10680 10687 10696 10704 10710 10713 10715 10716 10717 10714 10717 10719 10723 10725 10727 10725 10723 10719 10717 10715 10710 10711 10712 10714 10713
10382 10391 10400 10407 10416 10424 10435 10449 10464 10476 10492 10509 10526 10540 10553 10566 10574 10586 10598 10607 10616 10629 10642 10655 10669 10674 10686 10688 10691 10696 10701 10701 10701 10703 10703 10708 10711 10713 10713 10713 10710 10707 10704 10698 10699 10697 10698 10700 10698
10387 10393 10400 10408 10417 10426 10436 10447 10459 10473 10486 10498 10513 10528 10540 10553 10566 10576 10587 10598 10606 10615 10629 10641 10651 10660 10668 10670 10674 10683 10686 10688 10689 10689 10690 10696 10700 10700 10699 10697 10695 10693 10691 10684 10684 10683 10685 10683 10680
10390 10397 10404 10412 10418 10425 10432 10443 10456 10473 10482 10495 10508 10518 10531 10541 10554 10566 10574 10582 10593 10604 10615 10626 10631 10641 10651 10655 10663 10667 10672 10673 10674 10679 10679 10676 10685 10683 10681 10680 10680 10680 10677 10674 10672 10674 10673 10670 10669
10393 10400 10406 10413 10420 10428 10435 10443 10455 10470 10480 10488 10496 10506 10522 10535 10545 10553 10563 10573 10581 10596 10607 10615 10621 10628 10633 10639 10647 10652 10655 10658 10660 10664 10666 10665 10666 10665 10661 10660 10662 10662 10661 10658 10656 10654 10655 10655 10653
10399 10405 10410 10416 10422 10429 10437 10445 10455 10467 10478 10485 10491 10504 10517 10525 10534 10543 10551 10561 10571 10581 10591 10598 10606 10612 10616 10621 10626 10633 10637 10639 10644 10645 10648 10649 10645 10644 10642 10643 10642 10642 10642 10640 10639 10638 10637 10634 10633
10402 10410 10416 10421 10427 10433 10439 10447 10455 10463 10474 10481 10489 10496 10506 10518 10524 10533 10542 10550 10559 10569 10578 10582 10588 10595 10599 10606 10611 10615 10619 10621 10623 10623 10626 10627 10627 10624 10621 10621 10622 10621 10622 10622 10621 10618 10617 10614 10612
10411 10414 10419 10425 10431 10437 10442 10450 10458 10463 10469 10476 10481 10487 10496 10508 10520 10529 10535 10540 10545 10550 10558 10565 10570 10575 10579 10583 10588 10593 10597 10601 10600 10600 10603 10607 10606 10604 10598 10600 10600 10602 10601 10599 10598 10596 10596 10594 10593